[[{"header":{"parameterUnit":"m.s-1","parameterCategory":1,"la1":30.2991,"la2":30.254,"lo1":-89.0895,"lo2":-89.0444,"dy":0.0017,"dx":0.0017,"nx":28,"ny":28,"refTime":"2024-07-25T21:00:00:Z","depth":0,"parameterNumber":2,"parameterNumberName":"U-component_of_WINDS"},"data":[0,0,0,0,0,0,0,0,0,0,0,0,0,0,0,0,0,0,0,0,0,0,0,0,0,0,0,0,0,0,0,0,0,0,0,0,0,0,0,0,0,0,0,0,0,0,0,0,0,0,0,0,0,0,0,0,0,0,0.367,0.3671,0,0.3707,0.3707,0.3708,0.3689,0.3688,0.3687,0.3686,0.3725,0.3727,0.3729,0,0,0,0,0,0,0,0,0,0,0,0,0,0.3586,0.3588,0.367,0.3671,0.3671,0.3707,0.3707,0.3708,0.3689,0.3688,0.3687,0.3686,0.3725,0.3727,0.3729,0,0,0,0,0,0,0,0,0,0,0,0,0,0.3623,0.3588,0.367,0.3666,0.3666,0.3707,0.3707,0.3708,0.3689,0.3688,0.3686,0.3685,0.3724,0.3727,0.373,0.3777,0,0,0.3739,0.374,0,0,0,0,0,0,0,0,0.3621,0.3626,0.3666,0.3666,0.3667,0.3692,0.3692,0.3731,0.369,0.3681,0.3686,0.3684,0.3716,0.3719,0.3729,0.3779,0.378,0.3739,0.3741,0.3742,0.3743,0,0,0,0,0,0,0,0.3618,0.3624,0.3685,0.3667,0.3667,0.3663,0.3667,0.3699,0.3706,0.3681,0.368,0.3684,0.3715,0.3726,0.373,0.3781,0.3739,0.3741,0.3743,0.3744,0.387,0.3872,0,0,0,0,0,0,0.3615,0.3622,0.3684,0.3686,0.3639,0.3666,0.367,0.3685,0.3705,0.3707,0.3686,0.3683,0.3722,0.3727,0.3731,0.3786,0.3742,0.3745,0.3746,0.3869,0.3871,0.3872,0,0,0,0,0,0,0.3614,0.3621,0.3682,0.3654,0.3661,0.3669,0.3686,0.3687,0.3698,0.3709,0.371,0.3696,0.3721,0.3727,0.3765,0.3788,0.3746,0.3749,0.3867,0.3869,0.3871,0.3898,0,0,0,0,0,0,0.3611,0.3621,0.3638,0.3654,0.3663,0.3715,0.3688,0.3688,0.3702,0.37,0.3718,0.372,0.372,0.3761,0.3768,0.3791,0.3751,0.3865,0.3868,0.3871,0.3895,0.3901,0.3906,0,0,0,0,0,0.3608,0.3645,0.3639,0.3647,0.3685,0.3716,0.3721,0.372,0.3704,0.3722,0.3729,0.3719,0.3785,0.3765,0.3773,0.3797,0.3863,0.3867,0.387,0.3893,0.39,0.3906,0,0,0,0,0,0,0.3632,0.3647,0.3641,0.3683,0.3699,0.3713,0.3735,0.3728,0.3749,0.3746,0.3745,0.3749,0.3788,0.3797,0.3775,0.3843,0.3821,0.3827,0.3836,0.3843,0.3848,0.3844,0.3753,0,0,0,0,0,0.3642,0.3666,0.3678,0.3715,0.3723,0.3728,0.3742,0.374,0.3756,0.3762,0.3772,0.3789,0.3813,0.3828,0.3851,0.3897,0.39,0.3918,0.3923,0.3927,0.3931,0.3955,0.3962,0.3884,0.3884,0.3884,0,0,0.3663,0.3674,0.369,0.372,0.3731,0.3756,0.3733,0.3761,0.3779,0.3767,0.3802,0.3811,0.3829,0.3871,0.389,0.3879,0.3954,0.3932,0.3935,0.3937,0.396,0.3967,0.3973,0.3886,0.3886,0.3886,0,0,0.3714,0.3726,0.3756,0.3768,0.3786,0.3789,0.3797,0.3812,0.3817,0.3853,0.3843,0.3866,0.3908,0.3921,0.3933,0.3989,0.398,0.3997,0.4024,0.4048,0.4054,0.4059,0.4078,0.4084,0.4001,0.4001,0.4001,0,0.3738,0.3775,0.3773,0.3801,0.3814,0.3804,0.3835,0.3847,0.3871,0.3881,0.3869,0.392,0.3932,0.3976,0.3989,0.4,0.4008,0.3994,0.4053,0.4058,0.4063,0.4081,0.4088,0.4003,0.4003,0.4003,0.4002,0,0.3803,0.3828,0.3851,0.3874,0.389,0.392,0.3923,0.394,0.3937,0.3941,0.3978,0.3992,0.4017,0.4028,0.4025,0.4071,0.4064,0.4053,0.403,0.4073,0.4089,0.4096,0.4005,0.4005,0.4004,0.4004,0,0,0.3868,0.3889,0.3898,0.3907,0.3926,0.3946,0.3976,0.3999,0.4013,0.4031,0.4055,0.409,0.408,0.4094,0.4093,0.4114,0.4155,0.41,0.41,0.4108,0.4205,0.4212,0.422,0.415,0.4152,0.4153,0.4203,0,0.3918,0.3968,0.3968,0.4014,0.4037,0.4028,0.4053,0.4068,0.4074,0.4094,0.4101,0.4125,0.411,0.4118,0.4138,0.4146,0.4174,0.4143,0.4172,0.4173,0.4166,0.4229,0.4236,0.4283,0.421,0.4211,0.4212,0,0.3983,0.4002,0.405,0.4065,0.4075,0.4098,0.4119,0.4139,0.4156,0.4158,0.4174,0.417,0.42,0.4178,0.4219,0.4197,0.421,0.4215,0.4217,0.4218,0.4193,0.423,0.4298,0.4304,0.4222,0.4221,0.422,0,0.4023,0.4061,0.4094,0.4104,0.4122,0.4138,0.4147,0.4162,0.4176,0.4195,0.4204,0.4227,0.4239,0.4257,0.426,0.4244,0.4301,0.4279,0.4303,0.4303,0.4314,0.4313,0.4383,0.4325,0.4325,0.4325,0.4325,0,0.4079,0.4108,0.4113,0.4133,0.4166,0.4166,0.4199,0.4206,0.422,0.4241,0.4236,0.4257,0.426,0.4281,0.4284,0.4317,0.4323,0.4325,0.4325,0.4325,0.4324,0.4331,0.4328,0.4327,0.4326,0.4326,0.4326,0,0.4128,0.4133,0.4168,0.4183,0.4187,0.4211,0.4223,0.4243,0.4248,0.4276,0.4282,0.4291,0.4316,0.4321,0.4351,0.4353,0.4391,0.4389,0.4385,0.4384,0.4407,0.4404,0.4482,0.4492,0.443,0.443,0.4431,0,0.4162,0.4184,0.4201,0.4215,0.4224,0.4247,0.4261,0.4263,0.4278,0.4298,0.4315,0.4339,0.4359,0.4399,0.4408,0.4431,0.4428,0.4455,0.4432,0.443,0.4427,0.4424,0.4426,0.4458,0.4459,0.4459,0.446,0,0.4221,0.4222,0.4242,0.4263,0.428,0.4297,0.4313,0.4324,0.4328,0.4346,0.4371,0.4386,0.4416,0.444,0.4463,0.4472,0.4466,0.4467,0.4474,0.4472,0.4468,0.4469,0.4395,0.4465,0.4464,0.4464,0.4464,0.4464,0.4262,0.4281,0.4296,0.4318,0.4331,0.4346,0.4364,0.4372,0.4392,0.4416,0.4417,0.4444,0.446,0.449,0.4501,0.4523,0.4514,0.4524,0.4526,0.4528,0.4529,0.4466,0.4527,0.4527,0.4527,0.4527,0.4527,0,0.4319,0.4328,0.4349,0.4371,0.4389,0.4382,0.44,0.4415,0.4439,0.4454,0.4473,0.4502,0.4525,0.4536,0.4559,0.4574,0.4572,0.458,0.4578,0.458,0.4536,0.4527,0.4581,0.4581,0.4581,0.4581,0.4581,0.4581,0.4351,0.4382,0.4385,0.4422,0.4431,0.4457,0.4467,0.4481,0.4493,0.4525,0.4544,0.4551,0.4565,0.4589,0.461,0.4613,0.4621,0.463,0.4631,0.4589,0.4584,0.4578,0.457,0.4632,0.4632,0.4673,0.4674,0.4674]},{"header":{"parameterUnit":"m.s-1","parameterCategory":1,"la1":30.2991,"la2":30.254,"lo1":-89.0895,"lo2":-89.0444,"dy":0.0017,"dx":0.0017,"nx":28,"ny":28,"refTime":"2024-07-25T21:00:00:Z","depth":0,"parameterNumber":3,"parameterNumberName":"V-component_of_WINDS"},"data":[0,0,0,0,0,0,0,0,0,0,0,0,0,0,0,0,0,0,0,0,0,0,0,0,0,0,0,0,0,0,0,0,0,0,0,0,0,0,0,0,0,0,0,0,0,0,0,0,0,0,0,0,0,0,0,0,0,0,3.3556,3.3554,0,3.3416,3.3414,3.3413,3.3266,3.3264,3.3262,3.3261,3.3111,3.3109,3.3107,0,0,0,0,0,0,0,0,0,0,0,0,0,3.3693,3.3691,3.3556,3.3554,3.3553,3.3416,3.3414,3.3412,3.3267,3.3264,3.3262,3.326,3.3112,3.311,3.3107,0,0,0,0,0,0,0,0,0,0,0,0,0,3.3601,3.369,3.3556,3.3464,3.3454,3.3416,3.3414,3.3412,3.3267,3.3264,3.3261,3.3258,3.3113,3.311,3.3107,3.3147,0,0,3.3097,3.3096,0,0,0,0,0,0,0,0,3.3606,3.3596,3.3479,3.347,3.3459,3.3356,3.3407,3.3323,3.3268,3.3338,3.326,3.3257,3.3195,3.3185,3.3165,3.314,3.3134,3.3097,3.3095,3.3093,3.3093,0,0,0,0,0,0,0,3.3613,3.3601,3.35,3.3478,3.3465,3.3427,3.3411,3.3391,3.3285,3.3332,3.3321,3.3306,3.3189,3.3168,3.316,3.3132,3.3097,3.3094,3.3092,3.3091,3.3132,3.3135,0,0,0,0,0,0,3.3634,3.3608,3.3505,3.3496,3.3527,3.3427,3.3409,3.3392,3.3285,3.3265,3.3309,3.33,3.3175,3.3164,3.3154,3.3193,3.3093,3.3091,3.3089,3.3129,3.3133,3.3136,0,0,0,0,0,0,3.3638,3.3626,3.351,3.3549,3.3531,3.3428,3.341,3.3391,3.337,3.3268,3.3247,3.3308,3.3172,3.3159,3.315,3.3186,3.3089,3.3086,3.3125,3.313,3.3134,3.3273,0,0,0,0,0,0,3.3642,3.3629,3.3644,3.355,3.353,3.3511,3.3412,3.339,3.3366,3.3352,3.3261,3.3243,3.3169,3.3156,3.3147,3.318,3.3084,3.3122,3.3127,3.3133,3.3265,3.3282,3.3296,0,0,0,0,0,3.3648,3.3688,3.3646,3.3634,3.3548,3.3513,3.3501,3.3416,3.3369,3.3383,3.3317,3.3246,3.3185,3.3156,3.3145,3.3178,3.3119,3.3126,3.3132,3.3258,3.3278,3.3296,0,0,0,0,0,0,3.3786,3.3674,3.3626,3.3637,3.3586,3.3489,3.3503,3.3441,3.3401,3.339,3.3285,3.3265,3.3269,3.3222,3.3193,3.321,3.3141,3.3146,3.324,3.3259,3.3275,3.3284,3.3081,0,0,0,0,0,3.3819,3.3802,3.3704,3.3724,3.3701,3.3607,3.3589,3.3528,3.347,3.3447,3.338,3.3325,3.3293,3.3274,3.3239,3.3258,3.3235,3.3275,3.3291,3.3304,3.3309,3.3314,3.333,3.3158,3.3158,3.3158,0,0,3.3885,3.3821,3.3817,3.375,3.3703,3.3686,3.359,3.3576,3.3562,3.3444,3.3432,3.3382,3.3313,3.3319,3.3317,3.328,3.3352,3.3313,3.3324,3.3321,3.3322,3.3339,3.3353,3.3162,3.3162,3.3161,0,0,3.3995,3.3947,3.3957,3.3913,3.3844,3.3781,3.3785,3.3696,3.3659,3.3646,3.3557,3.3538,3.3485,3.3439,3.3409,3.3504,3.3436,3.3496,3.3577,3.3583,3.3596,3.3608,3.3639,3.3652,3.3501,3.3502,3.3502,0,3.4085,3.4058,3.397,3.3962,3.3934,3.383,3.3838,3.3799,3.3722,3.3704,3.3664,3.3595,3.3542,3.3534,3.3558,3.3538,3.3535,3.3504,3.3602,3.3613,3.3622,3.3651,3.3663,3.3509,3.3508,3.3507,3.3507,0,3.4171,3.4153,3.417,3.4099,3.4074,3.4074,3.3985,3.3969,3.3911,3.3853,3.384,3.3772,3.3721,3.3715,3.3658,3.3699,3.3678,3.3622,3.355,3.3647,3.3672,3.3683,3.352,3.3517,3.3515,3.3513,0,0,3.4362,3.4245,3.4252,3.4219,3.4136,3.4119,3.4115,3.4066,3.4054,3.4005,3.3996,3.3955,3.3902,3.3868,3.3805,3.3811,3.3888,3.3753,3.375,3.3779,3.3927,3.3968,3.3982,3.3844,3.3846,3.3847,3.3932,0,3.4457,3.4443,3.4364,3.4373,3.4354,3.4256,3.4251,3.4199,3.4145,3.4119,3.4058,3.403,3.3964,3.3943,3.3944,3.3879,3.3916,3.3872,3.3832,3.3832,3.385,3.3996,3.4039,3.4122,3.3941,3.3943,3.3944,0,3.4564,3.4524,3.4531,3.4448,3.4437,3.4435,3.4384,3.4362,3.43,3.426,3.4224,3.4153,3.414,3.4075,3.4055,3.4027,3.4006,3.3972,3.3973,3.3963,3.3892,3.3988,3.4147,3.4159,3.3959,3.3958,3.3957,0,3.4701,3.4648,3.4645,3.462,3.4523,3.4523,3.4483,3.4418,3.4394,3.435,3.4332,3.4287,3.4261,3.4226,3.4144,3.4105,3.4133,3.4061,3.4096,3.4099,3.4104,3.4105,3.426,3.4096,3.4096,3.4096,3.4096,0,3.4813,3.4821,3.4705,3.4703,3.4708,3.4617,3.4625,3.4574,3.4518,3.4503,3.4415,3.4402,3.4297,3.4271,3.4208,3.4199,3.4189,3.4154,3.4136,3.416,3.4165,3.4143,3.4134,3.4099,3.4098,3.4098,3.4097,0,3.4965,3.4888,3.4878,3.4788,3.4766,3.4774,3.4696,3.4689,3.463,3.4612,3.4603,3.451,3.4476,3.4392,3.4335,3.4292,3.43,3.4269,3.4321,3.4309,3.4349,3.4345,3.4493,3.4507,3.4338,3.434,3.4342,0,3.504,3.5044,3.4955,3.494,3.4904,3.488,3.4856,3.4766,3.4744,3.4674,3.4676,3.4635,3.4598,3.4548,3.4473,3.4429,3.4395,3.445,3.4388,3.4412,3.4393,3.4393,3.4392,3.4463,3.4466,3.4467,3.4469,0,3.5181,3.5143,3.5112,3.5068,3.5042,3.5003,3.4958,3.495,3.485,3.4829,3.4794,3.4766,3.4709,3.4668,3.4613,3.4569,3.4501,3.449,3.4495,3.4518,3.4547,3.453,3.4356,3.4486,3.4484,3.4483,3.4482,3.4481,3.5294,3.5293,3.523,3.5199,3.5157,3.5117,3.5107,3.5048,3.5018,3.4965,3.4915,3.4885,3.4821,3.4741,3.4701,3.4675,3.464,3.4649,3.465,3.4653,3.4663,3.4555,3.4665,3.4664,3.4664,3.4663,3.4663,0,3.5428,3.5384,3.5356,3.5298,3.5273,3.5215,3.5163,3.5145,3.512,3.5069,3.5034,3.4994,3.4955,3.4879,3.4832,3.4826,3.4794,3.4816,3.4814,3.4805,3.4698,3.4697,3.4843,3.4843,3.4843,3.4843,3.4843,3.4843,3.5495,3.5489,3.5444,3.5416,3.537,3.5342,3.5317,3.528,3.5238,3.5197,3.5165,3.5117,3.5054,3.5003,3.4964,3.4942,3.4928,3.4961,3.4929,3.483,3.4813,3.4796,3.4794,3.4959,3.4959,3.5037,3.5038,3.5039]}]]